Stations météo

réclame
Mon MeteoGroup
Shoeburyness Landwick, Grande-Bretagne (3693): Température de l'air & dewpoint: 14.09.2018 23:00:00 - 20.09.2018 23:00:00 (BST)Shoeburyness Landwick, Grande-Bretagne (3693): Température de l'air -20cm & Température de l'air -100cm: 14.09.2018 23:00:00 - 20.09.2018 23:00:00 (BST)Shoeburyness Landwick, Grande-Bretagne (3693): Vitesse du vent & gusts: 14.09.2018 23:00:00 - 20.09.2018 23:00:00 (BST)Shoeburyness Landwick, Grande-Bretagne (3693): Direction du vent: 14.09.2018 23:00:00 - 20.09.2018 23:00:00 (BST)Shoeburyness Landwick, Grande-Bretagne (3693): reduced air pressure: 14.09.2018 23:00:00 - 20.09.2018 23:00:00 (BST)Shoeburyness Landwick, Grande-Bretagne (3693): visibility: 14.09.2018 23:00:00 - 20.09.2018 23:00:00 (BST)Shoeburyness Landwick, Grande-Bretagne (3693): Ensoleillement: 14.09.2018 23:00:00 - 20.09.2018 23:00:00 (BST)Shoeburyness Landwick, Grande-Bretagne (3693): Quantités de précipitations: 14.09.2018 23:00:00 - 20.09.2018 23:00:00 (BST)
Date & Time tt [°C] td [°C] tt -20cm [°C] tt -100cm [°C] ff [km/h] ff [knt] fx [km/h] fx [knt] dd ppp [hPa] vv [km] sd [min] rr [mm]
20.09.2018 23:00:00 20,0 13,7 - - 42 23 59 32 SSW 1002,6 30 0 0,0
20.09.2018 22:00:00 19,7 13,9 - - 37 20 57 31 SSW 1004,0 28 0 0,0
20.09.2018 21:00:00 19,9 14,5 - - 34 18 50 27 SW 1005,2 40 0 0,0
20.09.2018 20:00:00 20,3 14,5 - - 31 17 50 27 SW 1006,2 35 0 0,0
20.09.2018 19:00:00 20,2 14,7 - - 28 15 48 26 SW 1007,1 45 0 0,0
20.09.2018 18:00:00 20,5 14,5 - - 26 14 46 25 SW 1008,3 30 0 0,0
20.09.2018 17:00:00 20,3 14,5 - - 29 16 54 29 SW 1009,1 26 0 0,0
20.09.2018 16:00:00 20,2 14,0 - - 34 18 52 28 SW 1010,1 28 0 0,0
20.09.2018 15:00:00 20,4 13,3 - - 34 18 59 32 SW 1010,8 30 30 0,0
20.09.2018 14:00:00 20,7 14,1 - - 35 19 55 30 SW 1011,0 30 36 0,0
20.09.2018 13:00:00 20,1 14,4 - - 34 18 48 26 SW 1011,7 19 0 0,0
20.09.2018 12:00:00 19,3 14,4 - - 29 16 48 26 SW 1012,5 24 0 0,0
20.09.2018 11:00:00 19,6 14,9 - - 28 15 50 27 SW 1012,5 24 6 0,0
20.09.2018 10:00:00 19,3 14,7 17,0 16,5 29 16 48 26 SW 1012,7 22 24 0,0
20.09.2018 09:00:00 18,4 14,4 - - 29 16 - - SW 1012,7 19 6 0,0
20.09.2018 08:00:00 17,8 14,4 - - 26 14 - - SW 1012,7 22 0 0,0
20.09.2018 07:00:00 18,0 14,3 - - 22 12 - - SW 1013,1 19 0 0,0
20.09.2018 06:00:00 17,4 14,7 - - 21 11 - - SW 1013,1 16 0 0,0
20.09.2018 05:00:00 17,1 14,5 - - 28 15 - - SSW 1013,2 18 0 0,0
20.09.2018 04:00:00 17,0 14,6 - - 22 12 - - SSW 1013,7 15 0 0,0
20.09.2018 03:00:00 17,3 15,3 - - 22 12 - - SSW 1013,9 18 0 0,0
20.09.2018 02:00:00 17,4 15,4 - - 26 14 - - SW 1014,2 15 0 0,0
20.09.2018 01:00:00 17,2 15,0 - - 24 13 - - SSW 1014,2 17 - 0,0
20.09.2018 00:00:00 17,8 14,9 - - 18 10 - - SW 1014,7 24 0 0,0
19.09.2018 23:00:00 17,8 14,8 - - 18 10 - - SW 1014,7 19 0 0,0
19.09.2018 22:00:00 18,4 14,6 - - 29 16 54 29 SW 1014,4 19 0 0,0
19.09.2018 21:00:00 18,6 14,7 - - 24 13 - - SW 1014,5 20 0 0,0
19.09.2018 20:00:00 18,8 13,7 - - 29 16 52 28 SW 1013,8 19 0 0,0
19.09.2018 19:00:00 19,6 12,9 - - 31 17 50 27 SW 1013,6 26 6 0,0
19.09.2018 18:00:00 20,6 13,3 - - 39 21 61 33 SW 1013,0 25 54 0,0
19.09.2018 17:00:00 21,3 13,6 - - 35 19 65 35 SW 1012,6 20 48 0,0
19.09.2018 16:00:00 21,6 13,8 - - 42 23 72 39 SW 1012,0 21 54 0,0
19.09.2018 15:00:00 21,7 15,0 - - 41 22 65 35 SW 1012,2 27 42 0,0
19.09.2018 14:00:00 20,5 15,9 - - 34 18 59 32 SW 1012,5 25 36 0,0
19.09.2018 13:00:00 21,8 15,0 - - 37 20 57 31 SW 1012,2 24 42 0,0
19.09.2018 12:00:00 21,2 15,2 - - 35 19 55 30 SW 1012,6 28 36 0,0
19.09.2018 11:00:00 19,9 15,7 - - 29 16 48 26 SSW 1012,8 20 12 0,0
19.09.2018 10:00:00 19,5 15,5 16,7 16,5 31 17 46 25 SSW 1013,1 21 54 0,0
19.09.2018 09:00:00 18,7 15,9 - - 26 14 - - SSW 1012,9 17 12 0,0
19.09.2018 08:00:00 17,7 15,2 - - 24 13 - - SSW 1012,9 16 0 0,0
19.09.2018 07:00:00 17,4 14,8 - - 21 11 - - SSW 1012,7 18 0 0,0
19.09.2018 06:00:00 16,9 14,6 - - 22 12 - - SSW 1012,6 26 0 0,0
19.09.2018 05:00:00 16,9 14,5 - - 21 11 - - SSW 1012,7 30 0 0,0
19.09.2018 04:00:00 16,8 14,6 - - 16 9 - - SSW 1013,2 40 0 0,0
19.09.2018 03:00:00 17,3 14,7 - - 21 11 - - SSW 1013,0 40 0 0,0
19.09.2018 02:00:00 17,6 14,6 - - 24 13 - - SSW 1013,4 45 0 0,0
19.09.2018 01:00:00 17,4 14,5 - - 21 11 - - SSW 1013,0 35 - 0,0
19.09.2018 00:00:00 17,1 14,5 - - 22 12 - - SSW 1013,2 30 0 0,0
18.09.2018 23:00:00 17,4 14,2 - - 21 11 - - SW 1012,9 30 0 0,0
18.09.2018 22:00:00 17,5 14,5 - - 21 11 - - SW 1013,0 25 0 0,0
18.09.2018 21:00:00 18,1 14,5 - - 22 12 - - SW 1013,0 26 0 0,0
18.09.2018 20:00:00 18,5 14,6 - - 26 14 - - SW 1012,7 45 0 0,0
18.09.2018 19:00:00 19,1 14,5 - - 22 12 - - SW 1012,0 30 48 0,0
18.09.2018 18:00:00 20,2 13,9 - - 26 14 50 27 WSW 1011,8 30 36 0,0
18.09.2018 17:00:00 21,1 13,9 - - 29 16 52 28 WSW 1011,4 30 30 0,0
18.09.2018 16:00:00 20,8 14,0 - - 28 15 - - SW 1010,8 29 36 0,0
18.09.2018 15:00:00 21,4 13,8 - - 28 15 52 28 SW 1010,5 30 54 0,0
18.09.2018 14:00:00 20,7 13,7 - - 28 15 55 30 SW 1009,9 19 60 0,0
18.09.2018 13:00:00 21,0 12,5 - - 29 16 54 29 WSW 1009,3 15 60 0,0
18.09.2018 12:00:00 20,8 13,6 - - 34 18 55 30 WSW 1008,4 18 48 0,0
18.09.2018 11:00:00 18,7 14,6 - - 31 17 55 30 SW 1008,2 28 0 0,0
18.09.2018 10:00:00 18,6 14,6 16,7 16,5 29 16 57 31 SW 1007,8 30 12 0,0
18.09.2018 09:00:00 19,0 14,6 - - 31 17 50 27 SW 1007,0 23 0 0,0
18.09.2018 08:00:00 18,9 15,0 - - 26 14 - - WSW 1006,6 26 0 0,0
18.09.2018 07:00:00 18,6 15,9 - - 31 17 - - SSW 1006,3 27 0 0,0
18.09.2018 06:00:00 18,2 15,6 - - 28 15 - - SW 1006,1 40 0 0,0
18.09.2018 05:00:00 18,3 15,0 - - 22 12 - - SW 1006,3 40 0 0,0
18.09.2018 04:00:00 18,4 14,0 - - 18 10 - - SW 1006,5 50 0 0,0
18.09.2018 03:00:00 18,1 13,1 - - 16 9 - - SSW 1006,6 40 0 0,0
18.09.2018 02:00:00 18,7 13,2 - - 15 8 - - S 1006,9 50 0 0,0
18.09.2018 01:00:00 19,3 12,1 - - 13 7 - - S 1007,7 50 - 0,0
18.09.2018 00:00:00 17,8 13,2 - - 16 9 - - S 1008,2 45 0 0,0
17.09.2018 23:00:00 18,2 12,9 - - 22 12 - - SE 1008,8 50 0 0,0
17.09.2018 22:00:00 18,0 12,9 - - 16 9 - - SE 1009,8 50 0 0,0
17.09.2018 21:00:00 17,0 12,1 - - 13 7 - - SE 1010,6 50 0 0,0
17.09.2018 20:00:00 18,4 12,2 - - 8 4 - - SSE 1011,4 50 6 0,0
17.09.2018 19:00:00 20,1 11,0 - - 15 8 - - S 1011,7 50 60 0,0
17.09.2018 18:00:00 21,3 11,1 - - 18 10 - - S 1012,1 45 60 0,0
17.09.2018 17:00:00 22,8 10,3 - - 21 11 - - SSW 1012,6 45 60 0,0
17.09.2018 16:00:00 23,9 10,7 - - 24 13 - - SSW 1013,2 50 60 0,0
17.09.2018 15:00:00 24,3 11,4 - - 22 12 - - S 1013,9 50 60 0,0
17.09.2018 14:00:00 24,2 11,3 - - 22 12 - - SSW 1014,8 50 60 0,0
17.09.2018 13:00:00 23,3 12,4 - - 21 11 - - SSW 1015,7 45 60 0,0
17.09.2018 12:00:00 22,1 14,8 - - 21 11 - - S 1016,1 50 60 0,0
17.09.2018 11:00:00 20,9 15,5 - - 21 11 - - SSW 1016,8 40 60 0,0
17.09.2018 10:00:00 19,4 15,2 16,5 16,5 24 13 - - SSW 1017,0 45 60 0,0
17.09.2018 09:00:00 18,0 15,4 - - 21 11 - - SSW 1017,3 30 36 0,0
17.09.2018 08:00:00 17,7 15,2 - - 13 7 - - SW 1017,4 40 6 0,0
17.09.2018 07:00:00 17,5 15,5 - - 16 9 - - SW 1017,3 45 0 0,0
17.09.2018 06:00:00 17,3 15,6 - - 13 7 - - SSW 1017,2 50 0 0,0
17.09.2018 05:00:00 17,3 15,5 - - 11 6 - - SSW 1017,3 45 0 0,0
17.09.2018 04:00:00 17,1 15,3 - - 13 7 - - SW 1017,5 50 0 0,0
17.09.2018 03:00:00 16,9 15,1 - - 15 8 - - SW 1017,6 35 0 0,0
17.09.2018 02:00:00 16,2 14,7 - - 15 8 - - SW 1018,0 30 0 0,0
17.09.2018 01:00:00 15,8 14,2 - - 15 8 - - WSW 1018,4 35 - 0,0
17.09.2018 00:00:00 16,2 13,8 - - 13 7 - - SW 1018,2 35 0 0,0
16.09.2018 23:00:00 15,8 13,0 - - 11 6 - - SW 1018,5 35 0 0,0
16.09.2018 22:00:00 17,1 12,9 - - 15 8 - - SW 1018,5 50 0 0,0
16.09.2018 21:00:00 17,5 11,8 - - 15 8 - - SW 1018,3 50 0 0,0
16.09.2018 20:00:00 17,9 12,0 - - 18 10 - - SSW 1017,8 50 6 0,0
16.09.2018 19:00:00 18,8 12,4 - - 16 9 - - SSW 1017,6 50 54 0,0
16.09.2018 18:00:00 21,1 10,0 - - 21 11 - - SW 1017,4 50 60 0,0
16.09.2018 17:00:00 22,0 10,5 - - 22 12 - - SW 1017,0 50 60 0,0
16.09.2018 16:00:00 22,0 10,9 - - 24 13 - - SW 1017,2 50 60 0,0
16.09.2018 15:00:00 22,1 12,0 - - 31 17 - - SSW 1017,6 40 54 0,0
16.09.2018 14:00:00 22,3 12,6 - - 26 14 - - SW 1018,2 45 60 0,0
16.09.2018 13:00:00 21,5 12,7 - - 28 15 - - SSW 1018,4 30 60 0,0
16.09.2018 12:00:00 20,3 13,5 - - 24 13 - - SSW 1019,0 40 6 0,0
16.09.2018 11:00:00 18,7 12,9 - - 16 9 - - SW 1019,6 35 0 0,0
16.09.2018 10:00:00 18,1 13,7 16,0 16,5 16 9 - - SSW 1019,5 50 12 0,0
16.09.2018 09:00:00 16,7 13,7 - - 18 10 - - SSW 1019,6 40 12 0,0
16.09.2018 08:00:00 15,6 13,6 - - 16 9 - - S 1019,8 30 0 0,0
16.09.2018 07:00:00 15,1 13,1 - - 16 9 - - SSW 1019,7 35 0 0,0
16.09.2018 06:00:00 14,4 12,5 - - 18 10 - - SSW 1020,1 35 0 0,0
16.09.2018 05:00:00 14,2 12,4 - - 16 9 - - SSW 1020,2 35 0 0,0
16.09.2018 04:00:00 14,1 12,3 - - 9 5 - - SSW 1020,6 35 0 0,0
16.09.2018 03:00:00 13,9 12,3 - - 9 5 - - SW 1021,5 29 0 0,0
16.09.2018 02:00:00 14,0 12,3 - - 15 8 - - SW 1021,9 35 0 0,0
16.09.2018 01:00:00 14,1 12,3 - - 9 5 - - SW 1022,7 29 - 0,0
16.09.2018 00:00:00 14,3 12,2 - - 16 9 - - SSW 1023,0 30 0 0,0
15.09.2018 23:00:00 15,0 11,9 - - 13 7 - - SW 1023,3 30 0 0,0
15.09.2018 22:00:00 15,8 11,9 - - 13 7 - - SW 1023,6 45 0 0,0
15.09.2018 21:00:00 16,6 11,7 - - 15 8 - - SW 1023,4 45 0 0,0
15.09.2018 20:00:00 17,5 12,2 - - 15 8 - - SW 1023,2 35 0 0,0
15.09.2018 19:00:00 18,3 10,5 - - 13 7 - - SW 1022,9 45 0 0,0
15.09.2018 18:00:00 19,5 9,5 - - 8 4 - - WSW 1022,7 50 6 -
15.09.2018 17:00:00 20,0 9,3 - - 15 8 - - WSW 1023,0 35 54 0,0
15.09.2018 16:00:00 20,0 9,6 - - 16 9 - - WSW 1023,3 40 48 0,0
15.09.2018 15:00:00 20,5 10,6 - - 15 8 - - WSW 1023,7 35 54 0,0
15.09.2018 14:00:00 20,1 10,6 - - 18 10 - - WSW 1023,9 30 60 0,0
15.09.2018 13:00:00 19,6 10,4 - - 18 10 - - W 1024,1 50 60 0,0
15.09.2018 12:00:00 18,6 9,1 - - 15 8 - - WSW 1024,4 45 60 0,0
15.09.2018 11:00:00 17,1 10,8 - - 13 7 - - WSW 1024,6 22 60 0,0
15.09.2018 10:00:00 15,7 12,0 15,9 16,7 15 8 - - WSW 1024,5 22 60 0,0
15.09.2018 09:00:00 14,1 11,3 - - 11 6 - - W 1024,0 27 60 0,0
15.09.2018 08:00:00 13,0 11,1 - - 13 7 - - W 1023,5 25 54 0,0
15.09.2018 07:00:00 12,2 10,7 - - 13 7 - - W 1023,2 30 0 0,0
15.09.2018 06:00:00 12,4 10,8 - - 11 6 - - W 1022,8 45 0 0,0
15.09.2018 05:00:00 12,6 10,6 - - 11 6 - - W 1022,1 50 0 0,0
15.09.2018 04:00:00 12,7 10,5 - - 11 6 - - W 1021,7 45 0 0,0
15.09.2018 03:00:00 12,7 10,4 - - 9 5 - - W 1021,9 45 0 0,0
15.09.2018 02:00:00 13,3 10,3 - - 13 7 - - W 1022,0 45 0 0,0
15.09.2018 01:00:00 13,6 10,5 - - 13 7 - - WSW 1021,8 50 - 0,0
15.09.2018 00:00:00 14,4 10,8 - - 16 9 - - WSW 1021,3 50 0 0,0
14.09.2018 23:00:00 14,3 10,6 - - 13 7 - - WSW 1021,2 50 0 0,0

tt = Température de l'air
td = dewpoint
tt -20cm = Température de l'air -20cm
tt -100cm = Température de l'air -100cm
ff = Vitesse du vent
fx = gusts
dd = Direction du vent
ppp = reduced air pressure
vv = visibility
sd = Ensoleillement
rr = Quantités de précipitations

stations d'obs. à proximité